"Pseudo-MPEC" for P10Ijiv

Created 2018 Jul 12 14:18:19 UT using Find_Orb

Click here for an explanation of pseudo-MPECs

 
 Astrometry: 
     P10Ijiv  C2018 07 10?cAstrometryDr(?9._gTi$-E1iYMjXA!rf=$H$C2H:h/#'wWKQ[F51
     P10Ijiv  C2018 07 102Qm0@lh;Ga'G$+p\)(+EvM.yT_VY7llh_nRY:Ata\!c:aYvj;[ikF51
     P10Ijiv  C2018 07 10.wE=]!vNGB`jn?^imKoc?0vkQC\`@'WW]-+^*!EtJdY9XY?'B8krF51
     P10Ijiv |C2018 07 11.Ec`hyb[W@%H[!C+fredacted;Vxxi=%e0J]oF$]y$yZ5?R.yUVZ807
     P10Ijiv |C2018 07 11VS?vc=tR5S=E#cLh/F/46(gD[vTo,b4)KRW$AeAfBvOoPqXPrA?.807
     P10Ijiv KC2018 07 12$,,_(`/4HCqNOORpnM66#@_T7^c9#K=cseeWWkrftcQHmTcN\e_@474
     P10Ijiv KC2018 07 12$m1B,O6cSM2d^*xXnP'a05$_qX$1R(X%dm;NGH!33sq=rPeH12F_474
     P10Ijiv KC2018 07 12qr=O)pXah]5xT\F/J3(A+Kp\wi]\:USj8#HSk_Y7g=7PgKY.V3Zj474
     P10Ijiv KC2018 07 12pWYSmsbGcTJebp$uvocm-mZ2LCB`#HPMc[s\wtRE?:oD5kmNEOCP474

Station data:
(474) Mount John Observatory, Lake Tekapo  (S43.987388 E170.464960)  New
   Zealand.  Observers A. C. Gilmore, P. M. Kilmartin. Measurer P. M.
   Kilmartin. 1.0-m f/7.7 reflector + CCD.
(807) Cerro Tololo Observatory, La Serena  (S30.169136 W70.805900)  Chile.
   1.5-m Ritchey-Chrétien.
(F51) Pan-STARRS 1, Haleakala  (N20.707235 W156.255910)  US/Hawaii.
   Observers N. Primak, A. Schultz, S. Watters, J. Thiel, T. Goggia. Measurer
   PS1 Science Consortium. 1.8-m Ritchey-Chrétien + CCD.

Orbital elements:  P10Ijiv
   Perihelion 2019 Aug 21.227988 TT =  5:28:18 (JD 2458716.727988)
Epoch 2018 Jul 12.0 TT = JDT 2458311.5   Earth MOID: 0.7718   AutoNEOCP
M 212.06691                         (J2000 ecliptic)
n   0.36506138     Peri.  149.20956
a   1.93891507     Node   291.88838
e   0.1032614      Incl.   24.43633
P   2.70/986.12d   H   19.5     G   0.15   q 1.73869982  Q 2.13913032
From 9 observations 2018 July 10-12; mean residual 0".13
Residuals in arcseconds: 
180710 F51  .07+  .07+    180711 807  .02-  .10+    180712 474  .07-  .00     
180710 F51  .03-  .02+    180711 807  .05-  .12-    180712 474  .38+  .02-    
180710 F51  .09-  .03-    180712 474  .08-  .07-    180712 474  .29-  .15+    

Ephemerides (geocentric):
Date (UTC) HH   RA              Dec         delta   r     elong  mag
---- -- -- --  -------------   -----------  ------ ------ -----  ---
2018 07 12 14  19 12 40.018   -25 45 24.45  1.0987 2.1134 175.1 21.6
2018 07 12 15  19 12 35.866   -25 44 54.55  1.0987 2.1134 175.1 21.6
2018 07 12 16  19 12 31.716   -25 44 24.65  1.0987 2.1133 175.0 21.6
2018 07 12 17  19 12 27.566   -25 43 54.73  1.0987 2.1133 175.0 21.6
2018 07 12 18  19 12 23.417   -25 43 24.80  1.0987 2.1133 175.0 21.6
2018 07 12 19  19 12 19.269   -25 42 54.86  1.0987 2.1133 174.9 21.6
2018 07 12 20  19 12 15.122   -25 42 24.90  1.0987 2.1132 174.9 21.6
2018 07 12 21  19 12 10.976   -25 41 54.94  1.0988 2.1132 174.9 21.6
2018 07 12 22  19 12 06.831   -25 41 24.96  1.0988 2.1132 174.8 21.6
2018 07 12 23  19 12 02.687   -25 40 54.96  1.0988 2.1132 174.8 21.6
2018 07 13 00  19 11 58.545   -25 40 24.96  1.0988 2.1131 174.7 21.6
2018 07 13 01  19 11 54.403   -25 39 54.94  1.0988 2.1131 174.7 21.6
2018 07 13 02  19 11 50.262   -25 39 24.91  1.0988 2.1131 174.7 21.6
2018 07 13 03  19 11 46.122   -25 38 54.87  1.0988 2.1131 174.6 21.6
2018 07 13 04  19 11 41.984   -25 38 24.82  1.0988 2.1131 174.6 21.6
2018 07 13 05  19 11 37.846   -25 37 54.75  1.0988 2.1130 174.6 21.6
2018 07 13 06  19 11 33.710   -25 37 24.67  1.0988 2.1130 174.5 21.6
2018 07 13 07  19 11 29.574   -25 36 54.58  1.0988 2.1130 174.5 21.6
2018 07 13 08  19 11 25.440   -25 36 24.48  1.0989 2.1130 174.4 21.6
2018 07 13 09  19 11 21.307   -25 35 54.37  1.0989 2.1129 174.4 21.6
2018 07 13 10  19 11 17.175   -25 35 24.24  1.0989 2.1129 174.4 21.6
2018 07 13 11  19 11 13.044   -25 34 54.10  1.0989 2.1129 174.3 21.6
2018 07 13 12  19 11 08.914   -25 34 23.95  1.0989 2.1129 174.3 21.6
2018 07 13 13  19 11 04.786   -25 33 53.79  1.0989 2.1128 174.3 21.6
2018 07 13 14  19 11 00.658   -25 33 23.62  1.0989 2.1128 174.2 21.6
2018 07 13 15  19 10 56.532   -25 32 53.44  1.0990 2.1128 174.2 21.6
2018 07 13 16  19 10 52.407   -25 32 23.24  1.0990 2.1128 174.1 21.6
2018 07 13 17  19 10 48.283   -25 31 53.03  1.0990 2.1127 174.1 21.6
2018 07 13 18  19 10 44.160   -25 31 22.81  1.0990 2.1127 174.0 21.6
2018 07 13 19  19 10 40.039   -25 30 52.58  1.0990 2.1127 174.0 21.6
2018 07 13 20  19 10 35.919   -25 30 22.34  1.0990 2.1127 174.0 21.6
2018 07 13 21  19 10 31.800   -25 29 52.08  1.0991 2.1126 173.9 21.6
2018 07 13 22  19 10 27.682   -25 29 21.81  1.0991 2.1126 173.9 21.6
2018 07 13 23  19 10 23.566   -25 28 51.54  1.0991 2.1126 173.8 21.6
2018 07 14 00  19 10 19.451   -25 28 21.25  1.0991 2.1126 173.8 21.6
2018 07 14 01  19 10 15.337   -25 27 50.95  1.0991 2.1125 173.8 21.6
2018 07 14 02  19 10 11.224   -25 27 20.64  1.0992 2.1125 173.7 21.6
2018 07 14 03  19 10 07.113   -25 26 50.31  1.0992 2.1125 173.7 21.6
2018 07 14 04  19 10 03.003   -25 26 19.98  1.0992 2.1125 173.6 21.6
2018 07 14 05  19 09 58.894   -25 25 49.63  1.0992 2.1124 173.6 21.6
2018 07 14 06  19 09 54.787   -25 25 19.28  1.0992 2.1124 173.5 21.6
2018 07 14 07  19 09 50.680   -25 24 48.91  1.0993 2.1124 173.5 21.6
2018 07 14 08  19 09 46.576   -25 24 18.53  1.0993 2.1124 173.5 21.6
2018 07 14 09  19 09 42.472   -25 23 48.14  1.0993 2.1123 173.4 21.6
2018 07 14 10  19 09 38.370   -25 23 17.74  1.0993 2.1123 173.4 21.6
2018 07 14 11  19 09 34.270   -25 22 47.33  1.0994 2.1123 173.3 21.6
2018 07 14 12  19 09 30.170   -25 22 16.91  1.0994 2.1123 173.3 21.6
2018 07 14 13  19 09 26.073   -25 21 46.47  1.0994 2.1123 173.2 21.6